| time (UTC) | temp C | wind direction | speed KPH | gust KPH | rain 1hr cm | rain 24hr cm | rain mn cm | humidity % | barometer mb |
| 20260504000032 | 14 | 287 | 8.0 | 22.5 | 0.03 | 0.20 | 0.03 | 94 | 1011.5 |
| 20260503234531 | 13 | 318 | 6.4 | 17.7 | 0.03 | 0.20 | 0.03 | 94 | 1011.6 |
| 20260503233029 | 13 | 12 | 4.8 | 16.1 | 0.03 | 0.20 | 0.03 | 94 | 1011.6 |
| 20260503231527 | 13 | 267 | 8.0 | 27.4 | 0.05 | 0.20 | 0.03 | 94 | 1011.6 |
| 20260503230027 | 13 | 293 | 6.4 | 16.1 | 0.05 | 0.18 | 0.00 | 94 | 1011.7 |
| 20260503224527 | 13 | 337 | 6.4 | 16.1 | 0.05 | 0.18 | 0.00 | 94 | 1011.7 |
| 20260503223023 | 13 | 289 | 11.3 | 30.6 | 0.05 | 0.18 | 0.00 | 94 | 1011.7 |
| 20260503221522 | 13 | 335 | 3.2 | 17.7 | 0.03 | 0.15 | 0.15 | 94 | 1011.8 |
| 20260503220021 | 13 | 356 | 3.2 | 17.7 | 0.00 | 0.15 | 0.15 | 94 | 1011.6 |
| 20260503214536 | 13 | 283 | 4.8 | 14.5 | 0.00 | 0.15 | 0.15 | 94 | 1011.5 |
| 20260503213019 | 13 | 343 | 1.6 | 16.1 | 0.00 | 0.15 | 0.15 | 94 | 1011.5 |
| 20260503211518 | 13 | 335 | 3.2 | 16.1 | 0.00 | 0.15 | 0.15 | 94 | 1011.6 |
| 20260503210020 | 13 | 312 | 3.2 | 25.7 | 0.00 | 0.15 | 0.15 | 94 | 1011.3 |
| 20260503204519 | 13 | 352 | 4.8 | 12.9 | 0.00 | 0.15 | 0.15 | 94 | 1011.0 |
| 20260503203018 | 13 | 14 | 3.2 | 16.1 | 0.00 | 0.15 | 0.15 | 94 | 1010.9 |
| 20260503201517 | 13 | 340 | 3.2 | 17.7 | 0.00 | 0.15 | 0.15 | 95 | 1011.0 |
| 20260503200017 | 13 | 6 | 6.4 | 17.7 | 0.00 | 0.15 | 0.15 | 95 | 1010.9 |
| 20260503194517 | 13 | 300 | 3.2 | 11.3 | 0.00 | 0.15 | 0.15 | 95 | 1011.0 |
| 20260503193017 | 13 | 326 | 3.2 | 6.4 | 0.00 | 0.15 | 0.15 | 95 | 1010.9 |
| 20260503191518 | 13 | 279 | 1.6 | 6.4 | 0.00 | 0.15 | 0.15 | 95 | 1011.0 |
| 20260503190014 | 13 | 298 | 3.2 | 9.7 | 0.00 | 0.15 | 0.15 | 95 | 1011.1 |
| 20260503184513 | 13 | 305 | 0.0 | 3.2 | 0.00 | 0.15 | 0.15 | 94 | 1011.3 |
| 20260503183013 | 13 | 286 | 0.0 | 6.4 | 0.00 | 0.15 | 0.15 | 94 | 1011.4 |
| 20260503181511 | 13 | 308 | 3.2 | 11.3 | 0.00 | 0.15 | 0.15 | 94 | 1011.6 |
| 20260503180012 | 13 | 341 | 3.2 | 12.9 | 0.00 | 0.15 | 0.15 | 94 | 1011.5 |
| 20260503174515 | 13 | 339 | 0.0 | 9.7 | 0.00 | 0.15 | 0.15 | 94 | 1011.7 |
| 20260503173013 | 13 | 330 | 1.6 | 11.3 | 0.00 | 0.15 | 0.15 | 94 | 1011.9 |
| 20260503171509 | 13 | 314 | 3.2 | 11.3 | 0.00 | 0.15 | 0.15 | 94 | 1011.9 |
| 20260503150110 | 14 | 281 | 1.6 | 14.5 | 0.15 | 0.15 | 0.15 | 93 | 1012.9 |